STARLINK-4586, 53636

Orbit data source: Space-Track

STARLINK-4586, 53636 is a payload satellite owned by SpaceX/Seattle (US) in LEO that was launched on Sun, 28 Aug 2022 UTC via an FALCON 9 launch vehicle from the Air Force Eastern Test Range (AFETR). Payload-class satellites include a variety of spacecraft equipped with specific instruments for various scientific and technological missions. These include communications satellites like Starlink; space stations such as the ISS; scientific satellites like the Hubble; Earth observation satellites from companies like Planet Labs, Umbra, and HawkEye 360; GPS; miniature CubeSats for education and research; and military/defense satellites.

Loading next visibility...
Identifier
53636, 2022-104BA
Orbit
LEO
Country
Flag of USUS
Related business
Manufacturer
SpaceX/Seattle
Mission
Operational Commercial Communications
Bus & Motor
STARLINK, Unknown motor
Mass
300 kg wet, ~290 kg dry
Launch date (UTC)
2022-08-28 (4 years ago)
Launch vehicle
FALCON 9
Launch site
Air Force Eastern Test Range (AFETR)
Object type
Payload
Rocket body
Debris
Shape & HBR
Box + 1 Pan, 10.1 m
Radar Cross Section
13.562 m², Large (>1 m²)

Expand to show TLE details & history
Last TLE update: 17 hours ago

TLE from 17 hours ago
0 STARLINK-4586
1 53636U 22104BA  26072.37214446  .00025819  00000-0  16319-2 0  9997
2 53636  53.2182 207.4227 0001719  81.2257 278.8929 15.08896058196789
Epoch: 2026-03-13T08:55Z
TLE epoch observation values (Epoch: 2026-03-13T08:55:53.281Z)
Latitude
-0.00008°
Longitude
-97.55799°
Altitude
540.286 km
Speed
7.594 km/s
True Right ascension
13h 49m 41s
True Declination
0° 00' 00"
Sunlit
Object was in full shadow at epoch
Visualization orbit readout
Latitude
Unknown
Longitude
Unknown
Altitude
Unknown
Speed
Unknown
Apparent Right ascension
Unknown
Apparent Declination
Unknown
Sunlit
N/A
Visualization observer readout
Local Sidereal Time
06:44:20
Azimuth
Unknown
Elevation
Unknown
Doppler factor
Unknown
Orbital elements
Apogee altitude
541.006 km
Perigee altitude
538.628 km
Semi-major axis
6,917.954 km
Eccentricity
0.00017
Inclination
53.2182°
RAAN
207.4227°
Arg. of periapsis
81.2257°
True anomaly
278.87344°
Mean anomaly
278.8929°
Eccentric anomaly
278.88317°
Mean motion
3.77204 °/min
Orbital period
95.44 mins
BSTAR
0.0016319
Loading maneuver chart data...
Computing Atmospheric mass density...
Loading historical data...
Loading historical data...
Loading historical data...
Loading historical data...
Loading historical data...
Loading historical data...
Loading historical data...

Documentation

Showing up to 5 results
|